PRIVATE WETTERSTATION BILLIGHEIM-ALLFELD                       ZURCK
Wetterdaten: Montag, 03.04.2017
Datum Zeit Temp. A. Temp. A. min Temp. A. max Feuchte A. Luftdruck Regen Wind Richtung Richtung Sonnenschein ET Solar Taupunkt Windchill Windben Empfang
03.04.2017 00:00 9,2 C 9,2 C 9,4 C 88 % 1021,7 hPa 0,0 l/m 0,0 km/h (0 Bft) N 0 0 min 0,000 mm 0 W/m 7,3 C 9,2 C 0,0 km/h (0 Bft) 100 %
03.04.2017 00:10 9,1 C 9,0 C 9,2 C 88 % 1021,7 hPa 0,0 l/m 0,0 km/h (0 Bft) N 0 0 min 0,000 mm 0 W/m 7,2 C 9,1 C 0,0 km/h (0 Bft) 100 %
03.04.2017 00:20 8,9 C 8,9 C 9,1 C 88 % 1021,7 hPa 0,0 l/m 0,0 km/h (0 Bft) N 0 0 min 0,000 mm 0 W/m 7,0 C 8,9 C 0,0 km/h (0 Bft) 89 %
03.04.2017 00:30 8,8 C 8,8 C 8,9 C 88 % 1021,6 hPa 0,0 l/m 0,0 km/h (0 Bft) N 0 0 min 0,000 mm 0 W/m 6,9 C 8,8 C 0,0 km/h (0 Bft) 100 %
03.04.2017 00:40 8,7 C 8,7 C 8,8 C 89 % 1021,6 hPa 0,0 l/m 0,0 km/h (0 Bft) N 0 0 min 0,000 mm 0 W/m 7,0 C 8,7 C 0,0 km/h (0 Bft) 100 %
03.04.2017 00:50 8,5 C 8,5 C 8,7 C 89 % 1021,6 hPa 0,0 l/m 0,0 km/h (0 Bft) N 0 0 min 0,000 mm 0 W/m 6,8 C 8,5 C 0,0 km/h (0 Bft) 100 %
03.04.2017 01:00 8,2 C 8,2 C 8,4 C 89 % 1021,5 hPa 0,0 l/m 0,0 km/h (0 Bft) N 0 0 min 0,000 mm 0 W/m 6,5 C 8,2 C 0,0 km/h (0 Bft) 100 %
03.04.2017 01:10 7,9 C 7,9 C 8,2 C 89 % 1021,6 hPa 0,0 l/m 0,0 km/h (0 Bft) N-NW 337 0 min 0,000 mm 0 W/m 6,2 C 7,9 C 1,6 km/h (1 Bft) 100 %
03.04.2017 01:20 7,7 C 7,7 C 7,9 C 90 % 1021,6 hPa 0,0 l/m 0,0 km/h (0 Bft) N 0 0 min 0,000 mm 0 W/m 6,2 C 7,7 C 0,0 km/h (0 Bft) 100 %
03.04.2017 01:30 7,6 C 7,6 C 7,7 C 90 % 1021,8 hPa 0,0 l/m 0,0 km/h (0 Bft) N 0 0 min 0,000 mm 0 W/m 6,1 C 7,6 C 0,0 km/h (0 Bft) 100 %
03.04.2017 01:40 7,5 C 7,5 C 7,6 C 90 % 1021,8 hPa 0,0 l/m 0,0 km/h (0 Bft) N 0 0 min 0,000 mm 0 W/m 6,0 C 7,5 C 0,0 km/h (0 Bft) 100 %
03.04.2017 01:50 7,4 C 7,4 C 7,5 C 90 % 1021,8 hPa 0,0 l/m 0,0 km/h (0 Bft) N 0 0 min 0,000 mm 0 W/m 5,9 C 7,4 C 0,0 km/h (0 Bft) 100 %
03.04.2017 02:00 7,3 C 7,3 C 7,4 C 90 % 1021,9 hPa 0,0 l/m 0,0 km/h (0 Bft) N 0 0 min 0,000 mm 0 W/m 5,8 C 7,3 C 0,0 km/h (0 Bft) 100 %
03.04.2017 02:10 7,2 C 7,2 C 7,3 C 90 % 1021,9 hPa 0,0 l/m 0,0 km/h (0 Bft) N 0 0 min 0,000 mm 0 W/m 5,7 C 7,2 C 0,0 km/h (0 Bft) 100 %
03.04.2017 02:20 7,2 C 7,1 C 7,2 C 90 % 1021,9 hPa 0,0 l/m 0,0 km/h (0 Bft) N 0 0 min 0,000 mm 0 W/m 5,7 C 7,2 C 0,0 km/h (0 Bft) 100 %
03.04.2017 02:30 7,1 C 7,1 C 7,2 C 90 % 1021,9 hPa 0,0 l/m 0,0 km/h (0 Bft) N 0 0 min 0,000 mm 0 W/m 5,6 C 7,1 C 0,0 km/h (0 Bft) 100 %
03.04.2017 02:40 6,9 C 6,9 C 7,1 C 90 % 1021,9 hPa 0,0 l/m 0,0 km/h (0 Bft) N-NW 337 0 min 0,000 mm 0 W/m 5,4 C 6,9 C 3,2 km/h (1 Bft) 100 %
03.04.2017 02:50 6,7 C 6,7 C 6,9 C 90 % 1022,1 hPa 0,0 l/m 0,0 km/h (0 Bft) N 0 0 min 0,000 mm 0 W/m 5,2 C 6,7 C 0,0 km/h (0 Bft) 100 %
03.04.2017 03:00 6,7 C 6,6 C 6,7 C 90 % 1022,1 hPa 0,0 l/m 0,0 km/h (0 Bft) N 0 0 min 0,000 mm 0 W/m 5,2 C 6,7 C 0,0 km/h (0 Bft) 100 %
03.04.2017 03:10 6,6 C 6,6 C 6,7 C 91 % 1022,0 hPa 0,0 l/m 0,0 km/h (0 Bft) N 0 0 min 0,000 mm 0 W/m 5,2 C 6,6 C 0,0 km/h (0 Bft) 100 %
03.04.2017 03:20 6,6 C 6,6 C 6,6 C 91 % 1022,1 hPa 0,0 l/m 0,0 km/h (0 Bft) N-NW 337 0 min 0,000 mm 0 W/m 5,2 C 6,6 C 1,6 km/h (1 Bft) 100 %
03.04.2017 03:30 6,6 C 6,6 C 6,6 C 91 % 1022,1 hPa 0,0 l/m 0,0 km/h (0 Bft) N 0 0 min 0,000 mm 0 W/m 5,2 C 6,6 C 0,0 km/h (0 Bft) 100 %
03.04.2017 03:40 6,6 C 6,6 C 6,6 C 91 % 1022,1 hPa 0,0 l/m 0,0 km/h (0 Bft) N 0 0 min 0,000 mm 0 W/m 5,2 C 6,6 C 0,0 km/h (0 Bft) 100 %
03.04.2017 03:50 6,6 C 6,6 C 6,6 C 91 % 1022,1 hPa 0,0 l/m 0,0 km/h (0 Bft) N 0 0 min 0,000 mm 0 W/m 5,2 C 6,6 C 0,0 km/h (0 Bft) 100 %
03.04.2017 04:00 6,5 C 6,5 C 6,6 C 91 % 1022,2 hPa 0,0 l/m 0,0 km/h (0 Bft) N 0 0 min 0,000 mm 0 W/m 5,1 C 6,5 C 0,0 km/h (0 Bft) 100 %
03.04.2017 04:10 6,3 C 6,3 C 6,5 C 91 % 1022,2 hPa 0,0 l/m 0,0 km/h (0 Bft) N 0 0 min 0,000 mm 0 W/m 4,9 C 6,3 C 0,0 km/h (0 Bft) 99 %
03.04.2017 04:20 6,3 C 6,3 C 6,3 C 91 % 1022,2 hPa 0,0 l/m 0,0 km/h (0 Bft) N 0 0 min 0,000 mm 0 W/m 4,9 C 6,3 C 0,0 km/h (0 Bft) 100 %
03.04.2017 04:30 6,1 C 6,1 C 6,3 C 91 % 1022,1 hPa 0,0 l/m 0,0 km/h (0 Bft) N 0 0 min 0,000 mm 0 W/m 4,7 C 6,1 C 0,0 km/h (0 Bft) 100 %
03.04.2017 04:40 6,1 C 6,1 C 6,1 C 91 % 1022,2 hPa 0,0 l/m 0,0 km/h (0 Bft) N 0 0 min 0,000 mm 0 W/m 4,7 C 6,1 C 0,0 km/h (0 Bft) 90 %
03.04.2017 04:50 6,0 C 6,0 C 6,1 C 91 % 1022,2 hPa 0,0 l/m 0,0 km/h (0 Bft) N 0 0 min 0,000 mm 0 W/m 4,6 C 6,0 C 0,0 km/h (0 Bft) 100 %
03.04.2017 05:00 5,9 C 5,9 C 6,0 C 91 % 1022,1 hPa 0,0 l/m 0,0 km/h (0 Bft) N 0 0 min 0,000 mm 0 W/m 4,5 C 5,9 C 0,0 km/h (0 Bft) 100 %
03.04.2017 05:10 5,8 C 5,8 C 5,9 C 91 % 1022,2 hPa 0,0 l/m 0,0 km/h (0 Bft) N 0 0 min 0,000 mm 0 W/m 4,4 C 5,8 C 0,0 km/h (0 Bft) 100 %
03.04.2017 05:20 5,8 C 5,8 C 5,8 C 91 % 1022,2 hPa 0,0 l/m 0,0 km/h (0 Bft) N-NW 337 0 min 0,000 mm 0 W/m 4,4 C 5,8 C 1,6 km/h (1 Bft) 100 %
03.04.2017 05:30 5,8 C 5,8 C 5,8 C 91 % 1022,2 hPa 0,0 l/m 0,0 km/h (0 Bft) N-NW 337 0 min 0,000 mm 0 W/m 4,4 C 5,8 C 3,2 km/h (1 Bft) 100 %
03.04.2017 05:40 5,7 C 5,7 C 5,8 C 91 % 1022,2 hPa 0,0 l/m 0,0 km/h (0 Bft) N 0 0 min 0,000 mm 0 W/m 4,3 C 5,7 C 0,0 km/h (0 Bft) 99 %
03.04.2017 05:50 5,8 C 5,7 C 5,8 C 91 % 1022,2 hPa 0,0 l/m 0,0 km/h (0 Bft) N 0 0 min 0,000 mm 0 W/m 4,4 C 5,8 C 0,0 km/h (0 Bft) 100 %
03.04.2017 06:00 6,1 C 5,8 C 6,1 C 91 % 1022,2 hPa 0,0 l/m 0,0 km/h (0 Bft) N 0 0 min 0,000 mm 0 W/m 4,7 C 6,1 C 0,0 km/h (0 Bft) 100 %
03.04.2017 06:10 6,3 C 6,1 C 6,3 C 91 % 1022,2 hPa 0,0 l/m 0,0 km/h (0 Bft) N 0 0 min 0,000 mm 0 W/m 4,9 C 6,3 C 0,0 km/h (0 Bft) 100 %
03.04.2017 06:20 6,3 C 6,3 C 6,3 C 91 % 1022,4 hPa 0,0 l/m 0,0 km/h (0 Bft) N 0 0 min 0,000 mm 0 W/m 4,9 C 6,3 C 0,0 km/h (0 Bft) 100 %
03.04.2017 06:30 6,2 C 6,2 C 6,3 C 91 % 1022,4 hPa 0,0 l/m 0,0 km/h (0 Bft) N 0 0 min 0,000 mm 0 W/m 4,8 C 6,2 C 0,0 km/h (0 Bft) 100 %
03.04.2017 06:40 6,3 C 6,2 C 6,3 C 91 % 1022,4 hPa 0,0 l/m 0,0 km/h (0 Bft) N 0 0 min 0,000 mm 0 W/m 4,9 C 6,3 C 0,0 km/h (0 Bft) 100 %
03.04.2017 06:50 6,4 C 6,3 C 6,4 C 91 % 1022,5 hPa 0,0 l/m 0,0 km/h (0 Bft) N 0 0 min 0,000 mm 0 W/m 5,0 C 6,4 C 0,0 km/h (0 Bft) 100 %
03.04.2017 07:00 6,5 C 6,4 C 6,5 C 91 % 1022,6 hPa 0,0 l/m 0,0 km/h (0 Bft) N 0 0 min 0,000 mm 0 W/m 5,1 C 6,5 C 0,0 km/h (0 Bft) 100 %
03.04.2017 07:10 6,6 C 6,5 C 6,6 C 91 % 1022,6 hPa 0,0 l/m 0,0 km/h (0 Bft) N 0 0 min 0,000 mm 5 W/m 5,2 C 6,6 C 0,0 km/h (0 Bft) 100 %
03.04.2017 07:20 6,6 C 6,6 C 6,6 C 91 % 1022,6 hPa 0,0 l/m 0,0 km/h (0 Bft) N 0 0 min 0,000 mm 11 W/m 5,2 C 6,6 C 0,0 km/h (0 Bft) 100 %
03.04.2017 07:30 6,7 C 6,6 C 6,7 C 91 % 1022,8 hPa 0,0 l/m 0,0 km/h (0 Bft) N 0 0 min 0,000 mm 14 W/m 5,3 C 6,7 C 0,0 km/h (0 Bft) 100 %
03.04.2017 07:40 7,0 C 6,7 C 7,0 C 91 % 1022,9 hPa 0,0 l/m 1,6 km/h (1 Bft) W-NW 292 0 min 0,000 mm 18 W/m 5,6 C 7,0 C 4,8 km/h (1 Bft) 100 %
03.04.2017 07:50 7,1 C 7,0 C 7,1 C 91 % 1023,0 hPa 0,0 l/m 0,0 km/h (0 Bft) N 0 0 min 0,000 mm 25 W/m 5,7 C 7,1 C 0,0 km/h (0 Bft) 100 %
03.04.2017 08:00 7,3 C 7,1 C 7,3 C 91 % 1023,0 hPa 0,0 l/m 0,0 km/h (0 Bft) N 0 0 min 0,000 mm 32 W/m 5,9 C 7,3 C 0,0 km/h (0 Bft) 100 %
03.04.2017 08:10 7,4 C 7,3 C 7,4 C 91 % 1023,1 hPa 0,0 l/m 0,0 km/h (0 Bft) N 0 0 min 0,000 mm 40 W/m 6,0 C 7,4 C 0,0 km/h (0 Bft) 100 %
03.04.2017 08:20 7,7 C 7,4 C 7,7 C 91 % 1023,2 hPa 0,0 l/m 0,0 km/h (0 Bft) N 0 0 min 0,000 mm 53 W/m 6,3 C 7,7 C 0,0 km/h (0 Bft) 100 %
03.04.2017 08:30 7,7 C 7,7 C 7,7 C 91 % 1023,2 hPa 0,0 l/m 0,0 km/h (0 Bft) N 0 0 min 0,000 mm 72 W/m 6,3 C 7,7 C 0,0 km/h (0 Bft) 100 %
03.04.2017 08:40 7,8 C 7,7 C 7,8 C 91 % 1023,2 hPa 0,0 l/m 0,0 km/h (0 Bft) N 0 0 min 0,000 mm 93 W/m 6,4 C 7,8 C 0,0 km/h (0 Bft) 100 %
03.04.2017 08:50 8,1 C 7,8 C 8,1 C 91 % 1023,4 hPa 0,0 l/m 0,0 km/h (0 Bft) N 0 0 min 0,000 mm 98 W/m 6,7 C 8,1 C 0,0 km/h (0 Bft) 100 %
03.04.2017 09:00 8,6 C 8,1 C 8,6 C 91 % 1023,4 hPa 0,0 l/m 0,0 km/h (0 Bft) N 0 10 min 0,025 mm 248 W/m 7,2 C 8,6 C 0,0 km/h (0 Bft) 100 %
03.04.2017 09:10 9,7 C 8,6 C 9,7 C 91 % 1023,5 hPa 0,0 l/m 0,0 km/h (0 Bft) NW 315 10 min 0,000 mm 283 W/m 8,3 C 9,7 C 4,8 km/h (1 Bft) 93 %
03.04.2017 09:20 10,7 C 9,7 C 10,7 C 91 % 1023,5 hPa 0,0 l/m 0,0 km/h (0 Bft) N-NW 337 10 min 0,000 mm 313 W/m 9,3 C 10,7 C 4,8 km/h (1 Bft) 97 %
03.04.2017 09:30 11,6 C 10,7 C 11,6 C 87 % 1023,5 hPa 0,0 l/m 0,0 km/h (0 Bft) N-NW 337 10 min 0,000 mm 348 W/m 9,5 C 11,6 C 4,8 km/h (1 Bft) 100 %
03.04.2017 09:40 12,3 C 11,6 C 12,3 C 81 % 1023,4 hPa 0,0 l/m 0,0 km/h (0 Bft) N-NW 337 10 min 0,000 mm 378 W/m 9,1 C 12,3 C 3,2 km/h (1 Bft) 100 %
03.04.2017 09:50 12,9 C 12,3 C 12,9 C 79 % 1023,5 hPa 0,0 l/m 1,6 km/h (1 Bft) N 360 10 min 0,000 mm 404 W/m 9,3 C 12,9 C 8,0 km/h (2 Bft) 100 %
03.04.2017 10:00 13,4 C 12,9 C 13,4 C 75 % 1023,6 hPa 0,0 l/m 0,0 km/h (0 Bft) N 360 10 min 0,152 mm 432 W/m 9,1 C 13,4 C 8,0 km/h (2 Bft) 100 %
03.04.2017 10:10 13,8 C 13,4 C 13,8 C 75 % 1023,6 hPa 0,0 l/m 0,0 km/h (0 Bft) N-NO 22 10 min 0,000 mm 455 W/m 9,4 C 13,8 C 6,4 km/h (2 Bft) 100 %
03.04.2017 10:20 14,3 C 13,8 C 14,3 C 72 % 1023,8 hPa 0,0 l/m 0,0 km/h (0 Bft) NO 45 10 min 0,000 mm 485 W/m 9,3 C 14,3 C 8,0 km/h (2 Bft) 100 %
03.04.2017 10:30 14,5 C 14,3 C 14,5 C 70 % 1023,7 hPa 0,0 l/m 1,6 km/h (1 Bft) NO 45 10 min 0,000 mm 510 W/m 9,1 C 14,5 C 6,4 km/h (2 Bft) 100 %
03.04.2017 10:40 14,8 C 14,5 C 14,8 C 69 % 1023,6 hPa 0,0 l/m 1,6 km/h (1 Bft) NO 45 10 min 0,000 mm 531 W/m 9,2 C 14,8 C 6,4 km/h (2 Bft) 100 %
03.04.2017 10:50 15,0 C 14,8 C 15,0 C 69 % 1023,6 hPa 0,0 l/m 1,6 km/h (1 Bft) NO 45 10 min 0,000 mm 557 W/m 9,4 C 15,0 C 8,0 km/h (2 Bft) 100 %
03.04.2017 11:00 15,1 C 15,0 C 15,1 C 68 % 1023,6 hPa 0,0 l/m 0,0 km/h (0 Bft) NO 45 10 min 0,254 mm 575 W/m 9,2 C 15,1 C 6,4 km/h (2 Bft) 99 %
03.04.2017 11:10 15,6 C 15,1 C 15,6 C 69 % 1023,7 hPa 0,0 l/m 0,0 km/h (0 Bft) N-NO 22 10 min 0,000 mm 594 W/m 9,9 C 15,6 C 6,4 km/h (2 Bft) 100 %
03.04.2017 11:20 15,9 C 15,6 C 15,9 C 65 % 1023,7 hPa 0,0 l/m 1,6 km/h (1 Bft) O 90 10 min 0,000 mm 619 W/m 9,3 C 15,9 C 8,0 km/h (2 Bft) 100 %
03.04.2017 11:30 16,2 C 15,9 C 16,2 C 64 % 1023,6 hPa 0,0 l/m 0,0 km/h (0 Bft) NO 45 10 min 0,000 mm 635 W/m 9,4 C 16,2 C 8,0 km/h (2 Bft) 100 %
03.04.2017 11:40 16,2 C 16,2 C 16,3 C 63 % 1023,5 hPa 0,0 l/m 1,6 km/h (1 Bft) NO 45 10 min 0,000 mm 649 W/m 9,1 C 16,2 C 9,7 km/h (2 Bft) 100 %
03.04.2017 11:50 16,5 C 16,2 C 16,5 C 64 % 1023,6 hPa 0,0 l/m 1,6 km/h (1 Bft) NO 45 10 min 0,000 mm 664 W/m 9,7 C 16,5 C 8,0 km/h (2 Bft) 100 %
03.04.2017 12:00 16,9 C 16,5 C 16,9 C 61 % 1023,6 hPa 0,0 l/m 1,6 km/h (1 Bft) NO 45 10 min 0,330 mm 693 W/m 9,3 C 16,9 C 8,0 km/h (2 Bft) 100 %
03.04.2017 12:10 17,1 C 16,8 C 17,1 C 60 % 1023,5 hPa 0,0 l/m 0,0 km/h (0 Bft) N-NO 22 10 min 0,000 mm 738 W/m 9,3 C 17,1 C 8,0 km/h (2 Bft) 100 %
03.04.2017 12:20 17,2 C 17,1 C 17,2 C 59 % 1023,5 hPa 0,0 l/m 0,0 km/h (0 Bft) N-NO 22 10 min 0,000 mm 756 W/m 9,1 C 17,2 C 6,4 km/h (2 Bft) 100 %
03.04.2017 12:30 17,4 C 17,2 C 17,4 C 63 % 1023,4 hPa 0,0 l/m 1,6 km/h (1 Bft) N-NW 337 10 min 0,000 mm 756 W/m 10,3 C 17,4 C 6,4 km/h (2 Bft) 100 %
03.04.2017 12:40 17,1 C 17,1 C 17,4 C 57 % 1023,4 hPa 0,0 l/m 1,6 km/h (1 Bft) N-NW 337 10 min 0,000 mm 257 W/m 8,5 C 17,1 C 9,7 km/h (2 Bft) 100 %
03.04.2017 12:50 16,7 C 16,7 C 17,1 C 61 % 1023,4 hPa 0,0 l/m 6,4 km/h (2 Bft) NW 315 10 min 0,000 mm 295 W/m 9,1 C 16,7 C 16,1 km/h (3 Bft) 100 %
03.04.2017 13:00 16,4 C 16,4 C 16,7 C 59 % 1023,3 hPa 0,0 l/m 1,6 km/h (1 Bft) NO 45 10 min 0,279 mm 580 W/m 8,4 C 16,4 C 9,7 km/h (2 Bft) 100 %
03.04.2017 13:10 16,4 C 16,4 C 16,5 C 57 % 1023,3 hPa 0,0 l/m 1,6 km/h (1 Bft) NO 45 10 min 0,000 mm 737 W/m 7,9 C 16,4 C 9,7 km/h (2 Bft) 99 %
03.04.2017 13:20 16,3 C 16,3 C 16,4 C 56 % 1023,1 hPa 0,0 l/m 0,0 km/h (0 Bft) N 0 10 min 0,000 mm 348 W/m 7,5 C 16,3 C 0,0 km/h (0 Bft) 100 %
03.04.2017 13:30 16,7 C 16,3 C 16,7 C 57 % 1023,1 hPa 0,0 l/m 0,0 km/h (0 Bft) N-NO 22 10 min 0,000 mm 682 W/m 8,1 C 16,7 C 1,6 km/h (1 Bft) 100 %
03.04.2017 13:40 17,4 C 16,7 C 17,4 C 56 % 1023,0 hPa 0,0 l/m 0,0 km/h (0 Bft) N-NW 337 10 min 0,000 mm 809 W/m 8,5 C 17,4 C 4,8 km/h (1 Bft) 100 %
03.04.2017 13:50 17,5 C 17,4 C 17,6 C 51 % 1022,9 hPa 0,0 l/m 0,0 km/h (0 Bft) O 90 10 min 0,000 mm 737 W/m 7,3 C 17,5 C 8,0 km/h (2 Bft) 100 %
03.04.2017 14:00 17,5 C 17,4 C 17,5 C 57 % 1022,8 hPa 0,0 l/m 0,0 km/h (0 Bft) N-NO 22 10 min 0,254 mm 464 W/m 8,9 C 17,5 C 1,6 km/h (1 Bft) 100 %
03.04.2017 14:10 17,5 C 17,5 C 17,6 C 56 % 1022,7 hPa 0,0 l/m 1,6 km/h (1 Bft) N-NW 337 10 min 0,000 mm 348 W/m 8,6 C 17,5 C 8,0 km/h (2 Bft) 100 %
03.04.2017 14:20 17,6 C 17,5 C 17,6 C 55 % 1022,7 hPa 0,0 l/m 1,6 km/h (1 Bft) N-NW 337 10 min 0,000 mm 295 W/m 8,5 C 17,6 C 9,7 km/h (2 Bft) 100 %
03.04.2017 14:30 17,6 C 17,6 C 17,6 C 57 % 1022,6 hPa 0,0 l/m 0,0 km/h (0 Bft) N 360 10 min 0,000 mm 396 W/m 9,0 C 17,6 C 1,6 km/h (1 Bft) 100 %
03.04.2017 14:40 17,4 C 17,4 C 17,6 C 53 % 1022,6 hPa 0,0 l/m 0,0 km/h (0 Bft) N-NW 337 10 min 0,000 mm 369 W/m 7,7 C 17,4 C 8,0 km/h (2 Bft) 100 %
03.04.2017 14:50 17,3 C 17,3 C 17,4 C 54 % 1022,5 hPa 0,0 l/m 0,0 km/h (0 Bft) N 360 10 min 0,000 mm 304 W/m 7,9 C 17,3 C 1,6 km/h (1 Bft) 100 %
03.04.2017 15:00 17,2 C 17,2 C 17,3 C 54 % 1022,4 hPa 0,0 l/m 0,0 km/h (0 Bft) N 360 10 min 0,178 mm 318 W/m 7,8 C 17,2 C 1,6 km/h (1 Bft) 100 %
03.04.2017 15:10 17,3 C 17,2 C 17,3 C 53 % 1022,3 hPa 0,0 l/m 0,0 km/h (0 Bft) N-NW 337 10 min 0,000 mm 323 W/m 7,6 C 17,3 C 4,8 km/h (1 Bft) 100 %
03.04.2017 15:20 17,4 C 17,3 C 17,4 C 53 % 1022,2 hPa 0,0 l/m 0,0 km/h (0 Bft) N-NW 337 10 min 0,000 mm 316 W/m 7,7 C 17,4 C 1,6 km/h (1 Bft) 100 %
03.04.2017 15:30 17,4 C 17,3 C 17,4 C 53 % 1022,3 hPa 0,0 l/m 1,6 km/h (1 Bft) NW 315 10 min 0,000 mm 285 W/m 7,7 C 17,4 C 8,0 km/h (2 Bft) 100 %
03.04.2017 15:40 17,6 C 17,4 C 17,6 C 52 % 1022,2 hPa 0,0 l/m 0,0 km/h (0 Bft) N 360 10 min 0,000 mm 281 W/m 7,6 C 17,6 C 9,7 km/h (2 Bft) 100 %
03.04.2017 15:50 17,6 C 17,6 C 17,6 C 52 % 1022,1 hPa 0,0 l/m 0,0 km/h (0 Bft) N-NO 22 10 min 0,000 mm 290 W/m 7,6 C 17,6 C 6,4 km/h (2 Bft) 99 %
03.04.2017 16:00 17,9 C 17,6 C 17,9 C 54 % 1022,1 hPa 0,0 l/m 3,2 km/h (1 Bft) N-NW 337 10 min 0,178 mm 294 W/m 8,5 C 17,9 C 9,7 km/h (2 Bft) 100 %
03.04.2017 16:10 17,9 C 17,9 C 17,9 C 52 % 1022,0 hPa 0,0 l/m 4,8 km/h (1 Bft) N-NW 337 10 min 0,000 mm 258 W/m 7,9 C 17,9 C 14,5 km/h (3 Bft) 99 %
03.04.2017 16:20 17,9 C 17,9 C 17,9 C 55 % 1022,0 hPa 0,0 l/m 4,8 km/h (1 Bft) N-NW 337 10 min 0,000 mm 257 W/m 8,7 C 17,9 C 14,5 km/h (3 Bft) 100 %
03.04.2017 16:30 17,8 C 17,8 C 17,9 C 56 % 1021,9 hPa 0,0 l/m 3,2 km/h (1 Bft) N-NW 337 10 min 0,000 mm 239 W/m 8,9 C 17,8 C 16,1 km/h (3 Bft) 100 %
03.04.2017 16:40 17,8 C 17,8 C 17,8 C 54 % 1021,8 hPa 0,0 l/m 1,6 km/h (1 Bft) N-NW 337 10 min 0,000 mm 239 W/m 8,4 C 17,8 C 8,0 km/h (2 Bft) 100 %
03.04.2017 16:50 17,7 C 17,7 C 17,8 C 53 % 1021,7 hPa 0,0 l/m 1,6 km/h (1 Bft) NW 315 10 min 0,000 mm 221 W/m 8,0 C 17,7 C 9,7 km/h (2 Bft) 100 %
03.04.2017 17:00 17,6 C 17,6 C 17,7 C 51 % 1021,8 hPa 0,0 l/m 3,2 km/h (1 Bft) N-NW 337 10 min 0,152 mm 213 W/m 7,3 C 17,6 C 14,5 km/h (3 Bft) 100 %
03.04.2017 17:10 17,4 C 17,4 C 17,6 C 54 % 1021,7 hPa 0,0 l/m 1,6 km/h (1 Bft) N-NW 337 10 min 0,000 mm 197 W/m 8,0 C 17,4 C 9,7 km/h (2 Bft) 100 %
03.04.2017 17:20 17,4 C 17,4 C 17,5 C 55 % 1021,6 hPa 0,0 l/m 3,2 km/h (1 Bft) N-NW 337 10 min 0,000 mm 183 W/m 8,3 C 17,4 C 16,1 km/h (3 Bft) 100 %
03.04.2017 17:30 17,4 C 17,3 C 17,4 C 56 % 1021,6 hPa 0,0 l/m 1,6 km/h (1 Bft) N-NW 337 10 min 0,000 mm 186 W/m 8,5 C 17,4 C 8,0 km/h (2 Bft) 100 %
03.04.2017 17:40 17,4 C 17,4 C 17,4 C 54 % 1021,5 hPa 0,0 l/m 4,8 km/h (1 Bft) NW 315 10 min 0,000 mm 172 W/m 8,0 C 17,4 C 14,5 km/h (3 Bft) 100 %
03.04.2017 17:50 17,4 C 17,3 C 17,4 C 58 % 1021,4 hPa 0,0 l/m 1,6 km/h (1 Bft) NW 315 0 min 0,000 mm 141 W/m 9,1 C 17,4 C 9,7 km/h (2 Bft) 100 %
03.04.2017 18:00 17,4 C 17,4 C 17,4 C 55 % 1021,2 hPa 0,0 l/m 3,2 km/h (1 Bft) NW 315 0 min 0,102 mm 132 W/m 8,3 C 17,4 C 16,1 km/h (3 Bft) 100 %
03.04.2017 18:10 17,3 C 17,3 C 17,4 C 54 % 1021,4 hPa 0,0 l/m 3,2 km/h (1 Bft) NW 315 0 min 0,000 mm 95 W/m 7,9 C 17,3 C 14,5 km/h (3 Bft) 100 %
03.04.2017 18:20 17,0 C 17,0 C 17,3 C 56 % 1021,2 hPa 0,0 l/m 3,2 km/h (1 Bft) N-NW 337 0 min 0,000 mm 90 W/m 8,2 C 17,0 C 9,7 km/h (2 Bft) 100 %
03.04.2017 18:30 16,8 C 16,8 C 17,0 C 54 % 1021,2 hPa 0,0 l/m 1,6 km/h (1 Bft) N-NW 337 0 min 0,000 mm 91 W/m 7,4 C 16,8 C 8,0 km/h (2 Bft) 100 %
03.04.2017 18:40 16,7 C 16,7 C 16,8 C 55 % 1021,2 hPa 0,0 l/m 1,6 km/h (1 Bft) NW 315 0 min 0,000 mm 86 W/m 7,6 C 16,7 C 9,7 km/h (2 Bft) 100 %
03.04.2017 18:50 16,4 C 16,4 C 16,7 C 55 % 1021,2 hPa 0,0 l/m 1,6 km/h (1 Bft) N-NW 337 0 min 0,000 mm 70 W/m 7,3 C 16,4 C 8,0 km/h (2 Bft) 100 %
03.04.2017 19:00 16,2 C 16,2 C 16,4 C 56 % 1021,2 hPa 0,0 l/m 0,0 km/h (0 Bft) NW 315 0 min 0,051 mm 44 W/m 7,4 C 16,2 C 6,4 km/h (2 Bft) 100 %
03.04.2017 19:10 15,8 C 15,8 C 16,2 C 56 % 1021,2 hPa 0,0 l/m 0,0 km/h (0 Bft) N 0 0 min 0,000 mm 30 W/m 7,0 C 15,8 C 0,0 km/h (0 Bft) 100 %
03.04.2017 19:20 15,5 C 15,5 C 15,8 C 59 % 1021,2 hPa 0,0 l/m 0,0 km/h (0 Bft) N-NW 337 0 min 0,000 mm 30 W/m 7,5 C 15,5 C 3,2 km/h (1 Bft) 100 %
03.04.2017 19:30 15,1 C 15,1 C 15,4 C 60 % 1021,2 hPa 0,0 l/m 0,0 km/h (0 Bft) N 0 0 min 0,000 mm 26 W/m 7,4 C 15,1 C 0,0 km/h (0 Bft) 100 %
03.04.2017 19:40 14,7 C 14,7 C 15,1 C 60 % 1021,3 hPa 0,0 l/m 0,0 km/h (0 Bft) N 0 0 min 0,000 mm 19 W/m 7,0 C 14,7 C 0,0 km/h (0 Bft) 100 %
03.04.2017 19:50 14,4 C 14,4 C 14,7 C 62 % 1021,3 hPa 0,0 l/m 0,0 km/h (0 Bft) N 0 0 min 0,000 mm 12 W/m 7,2 C 14,4 C 0,0 km/h (0 Bft) 100 %
03.04.2017 20:10 13,6 C 13,6 C 14,7 C 64 % 1021,4 hPa 0,0 l/m 0,0 km/h (0 Bft) N 355 0 min 0,026 mm 0 W/m 6,9 C 13,6 C 0,0 km/h (0 Bft) 100 %
03.04.2017 20:20 13,2 C 13,2 C 13,6 C 64 % 1021,5 hPa 0,0 l/m 0,0 km/h (0 Bft) N 355 0 min 0,000 mm 0 W/m 6,5 C 13,2 C 1,6 km/h (1 Bft) 100 %
03.04.2017 20:30 12,9 C 12,9 C 13,2 C 64 % 1021,5 hPa 0,0 l/m 0,0 km/h (0 Bft) N 355 0 min 0,000 mm 0 W/m 6,3 C 12,9 C 0,0 km/h (0 Bft) 100 %
03.04.2017 20:40 12,8 C 12,8 C 12,9 C 64 % 1021,5 hPa 0,0 l/m 0,0 km/h (0 Bft) N 355 0 min 0,000 mm 0 W/m 6,2 C 12,8 C 0,0 km/h (0 Bft) 100 %
03.04.2017 20:50 12,6 C 12,6 C 12,8 C 65 % 1021,7 hPa 0,0 l/m 0,1 km/h (0 Bft) N-NO 21 0 min 0,000 mm 0 W/m 6,2 C 12,6 C 3,2 km/h (1 Bft) 100 %
03.04.2017 21:00 12,4 C 12,4 C 12,6 C 65 % 1021,7 hPa 0,0 l/m 0,2 km/h (0 Bft) N-NO 19 0 min 0,000 mm 0 W/m 6,0 C 12,4 C 4,8 km/h (1 Bft) 100 %
03.04.2017 21:10 12,1 C 12,1 C 12,4 C 66 % 1021,7 hPa 0,0 l/m 0,0 km/h (0 Bft) N-NO 22 0 min 0,000 mm 0 W/m 5,9 C 12,1 C 1,6 km/h (1 Bft) 99 %
03.04.2017 21:20 11,8 C 11,8 C 12,1 C 67 % 1021,9 hPa 0,0 l/m 0,0 km/h (0 Bft) N 0 0 min 0,000 mm 0 W/m 5,9 C 11,8 C 0,0 km/h (0 Bft) 99 %
03.04.2017 21:30 11,5 C 11,5 C 11,8 C 68 % 1022,0 hPa 0,0 l/m 0,0 km/h (0 Bft) N 0 0 min 0,000 mm 0 W/m 5,8 C 11,5 C 0,0 km/h (0 Bft) 100 %
03.04.2017 21:40 11,3 C 11,3 C 11,5 C 70 % 1022,0 hPa 0,0 l/m 0,0 km/h (0 Bft) N 0 0 min 0,000 mm 0 W/m 6,0 C 11,3 C 0,0 km/h (0 Bft) 100 %
03.04.2017 21:50 11,2 C 11,2 C 11,3 C 70 % 1022,0 hPa 0,0 l/m 0,0 km/h (0 Bft) N 0 0 min 0,000 mm 0 W/m 5,9 C 11,2 C 0,0 km/h (0 Bft) 99 %
03.04.2017 22:00 11,1 C 11,1 C 11,2 C 71 % 1022,0 hPa 0,0 l/m 0,0 km/h (0 Bft) N 0 0 min 0,025 mm 0 W/m 6,0 C 11,1 C 0,0 km/h (0 Bft) 100 %
03.04.2017 22:10 11,1 C 11,1 C 11,1 C 69 % 1021,9 hPa 0,0 l/m 0,0 km/h (0 Bft) N 0 0 min 0,000 mm 0 W/m 5,6 C 11,1 C 0,0 km/h (0 Bft) 100 %
03.04.2017 22:20 11,2 C 11,1 C 11,2 C 70 % 1021,9 hPa 0,0 l/m 0,0 km/h (0 Bft) N 0 0 min 0,000 mm 0 W/m 5,9 C 11,2 C 0,0 km/h (0 Bft) 100 %
03.04.2017 22:30 11,2 C 11,2 C 11,2 C 71 % 1021,9 hPa 0,0 l/m 0,0 km/h (0 Bft) N 0 0 min 0,000 mm 0 W/m 6,1 C 11,2 C 0,0 km/h (0 Bft) 100 %
03.04.2017 22:40 11,0 C 11,0 C 11,2 C 71 % 1022,0 hPa 0,0 l/m 0,0 km/h (0 Bft) N-NO 22 0 min 0,000 mm 0 W/m 5,9 C 11,0 C 1,6 km/h (1 Bft) 100 %
03.04.2017 22:50 10,8 C 10,8 C 11,0 C 72 % 1022,1 hPa 0,0 l/m 0,0 km/h (0 Bft) N 0 0 min 0,000 mm 0 W/m 6,0 C 10,8 C 0,0 km/h (0 Bft) 99 %
03.04.2017 23:00 10,6 C 10,6 C 10,8 C 74 % 1022,1 hPa 0,0 l/m 0,0 km/h (0 Bft) N 0 0 min 0,025 mm 0 W/m 6,2 C 10,6 C 0,0 km/h (0 Bft) 99 %
03.04.2017 23:10 10,4 C 10,4 C 10,6 C 75 % 1022,1 hPa 0,0 l/m 0,0 km/h (0 Bft) N 0 0 min 0,000 mm 0 W/m 6,2 C 10,4 C 0,0 km/h (0 Bft) 90 %
03.04.2017 23:20 10,3 C 10,3 C 10,4 C 77 % 1022,1 hPa 0,0 l/m 0,0 km/h (0 Bft) N 0 0 min 0,000 mm 0 W/m 6,4 C 10,3 C 0,0 km/h (0 Bft) 100 %
03.04.2017 23:30 10,2 C 10,2 C 10,3 C 78 % 1022,1 hPa 0,0 l/m 0,0 km/h (0 Bft) NO 45 0 min 0,000 mm 0 W/m 6,5 C 10,2 C 1,6 km/h (1 Bft) 100 %
03.04.2017 23:40 10,2 C 10,2 C 10,2 C 78 % 1022,1 hPa 0,0 l/m 0,0 km/h (0 Bft) N 0 0 min 0,000 mm 0 W/m 6,5 C 10,2 C 0,0 km/h (0 Bft) 100 %
03.04.2017 23:50 10,1 C 10,1 C 10,2 C 79 % 1022,1 hPa 0,0 l/m 0,0 km/h (0 Bft) NO 45 0 min 0,000 mm 0 W/m 6,6 C 10,1 C 1,6 km/h (1 Bft) 100 %
_ Min-Zeit 05:40 05:40 05:20 13:50 18:00 - 00:00 - - - - - 05:40 05:40 00:00 00:20
Minimum _ 5,7 C 5,7 C 5,8 C 51 % 1021,2 hPa - 0,0 km/h (0 Bft) - - - - - 4,3 C 5,7 C 0,0 km/h (0 Bft) 89 %
_ Max-Zeit 16:00 16:10 16:00 03:10 10:20 00:00 12:50 - - 09:00 12:00 13:40 12:30 16:00 12:50 00:00
Maximum _ 17,9 C 17,9 C 17,9 C 91 % 1023,8 hPa 0,0 l/m 6,4 km/h
NW (2 Bft)
- - 10 min 0,330 mm 809 W/m 10,3 C 17,9 C 16,1 km/h
N-NW (3 Bft)
100 %
Durchschnitt _ 11,9 C 11,8 C 12,0 C 74 % 1022,3 hPa #0,0 l/m 0,6 km/h (0 Bft) N-NW - #8:50 h #2,031 mm 310 W/m 7,0 C 11,9 C 3,6 km/h (1 Bft) 100 %
PRIVATE WETTERSTATION BILLIGHEIM-ALLFELD - www.neckar-odenwald-wetter.de - Holger Sonntag